Location: Caltech
(34.1382°N, 118.1253°W)
Time: 00:19:54
(UTC-07:00)

Aureole 3 Rocket - Visible Passes

Search period start: 30 August 2016 00:00
Search period end: 09 September 2016 00:00
Orbit: 398 x 1747 km, 82.5° (Epoch: 29 August)

Date Brightness Start Highest point End Pass type
(mag) Time Alt. Az. Time Alt. Az. Time Alt. Az.
30 Aug 5.0 03:52:02 17° SSE 03:56:49 40° E 04:01:37 10° NNE visible
30 Aug 5.0 05:39:09 10° SW 05:44:06 21° W 05:48:05 10° NNW visible
31 Aug 6.3 03:01:08 11° ESE 03:03:56 15° E 03:06:50 10° ENE visible
31 Aug 3.9 04:47:59 27° SSW 04:51:26 56° W 04:56:15 10° N visible
01 Sep 4.3 03:56:49 40° SSE 03:58:39 55° E 04:03:21 10° NNE visible
01 Sep 5.3 05:43:39 12° WSW 05:45:52 14° W 05:48:30 10° NW visible
02 Sep 5.8 03:05:29 19° E 03:05:42 20° E 03:09:14 10° NE visible
02 Sep 4.1 04:52:17 35° WSW 04:53:09 38° W 04:57:32 10° NNW visible
03 Sep 3.7 04:00:48 73° NE 04:00:48 73° NE 04:04:58 10° N visible
04 Sep 5.6 03:09:11 21° ENE 03:09:11 21° ENE 03:11:18 10° NE visible
04 Sep 4.7 04:55:58 23° WNW 04:55:58 23° WNW 04:58:35 10° NNW visible
05 Sep 4.5 04:04:14 32° N 04:04:14 32° N 04:06:26 10° N visible
06 Sep 5.9 03:12:23 15° NE 03:12:23 15° NE 03:13:10 10° NNE visible
06 Sep 5.4 04:59:10 10° NW 04:59:10 10° NW 04:59:14 10° NW visible
07 Sep 5.5 04:07:15 14° N 04:07:15 14° N 04:07:46 10° N visible
